Location: Unspecified
(51.0950°N, 12.9690°E)
Time: 09:12:54
(UTC+00:00)

BUGSAT 1 - Visible Passes

Search period start: 12 May 2025 00:00
Search period end: 22 May 2025 00:00
Orbit: 512 x 557 km, 98.1° (Epoch: 11 May)

Date Brightness Start Highest point End Pass type
(mag) Time Alt. Az. Time Alt. Az. Time Alt. Az.
12 May ? 20:45:48 14° SSW 20:48:47 39° W 20:52:23 10° NNW visible
13 May ? 20:36:32 14° S 20:39:38 50° W 20:43:20 10° NNW visible
14 May ? 20:27:15 14° S 20:30:29 64° WSW 20:34:14 10° NNW visible
15 May ? 20:17:58 13° SSE 20:21:20 81° WSW 20:25:07 10° NNW visible
16 May ? 20:08:40 12° SSE 20:12:10 80° ENE 20:15:57 10° NNW visible
16 May ? 21:46:07 10° WSW 21:47:04 11° W 21:48:01 10° WNW visible
17 May ? 19:59:21 10° SSE 20:03:00 63° ENE 20:06:45 10° N visible
17 May ? 21:35:52 10° WSW 21:37:47 13° W 21:39:43 10° WNW visible
18 May ? 19:50:13 10° SE 19:53:52 49° ENE 19:57:31 10° N visible
18 May ? 21:26:02 10° SW 21:28:31 17° W 21:31:00 10° NW visible
19 May ? 19:41:11 10° SE 19:44:43 39° ENE 19:48:14 10° N visible
19 May ? 21:16:23 10° SW 21:19:15 20° W 21:22:07 10° NW visible
20 May ? 21:06:48 10° SSW 21:09:58 25° W 21:13:08 10° NW visible
21 May ? 20:57:23 10° SSW 21:00:42 31° W 21:04:06 10° NNW visible
